Weather Service Report


954 
ASUS41 KRLX 221710
RWRRLX
West Virginia Regional Weather Roundup
National Weather Service Charleston WV
1200 PM EST WED FEB 22 2017

Note: "fair" indicates few or no clouds below 12,000 feet with no
significant weather and/or obstructions to visibility.

WVZ003-221800-
Northern Panhandle of West Virginia
  
CITY           SKY/WX    TMP DP  RH WIND       PRES   REMARKS
WHEELING       CLOUDY    59  47  64 S7        29.93S                  
$$

WVZ009-221800-
Northwest West Virginia
  
CITY           SKY/WX    TMP DP  RH WIND       PRES   REMARKS
PARKERSBURG    CLOUDY    59  52  77 S6        29.97F                  
$$

WVZ006-221800-
Western West Virginia
  
CITY           SKY/WX    TMP DP  RH WIND       PRES   REMARKS
HUNTINGTON     LGT RAIN  55  53  93 S6        29.95F VSB 1            
$$

WVZ015-221800-
West Central West Virginia
  
CITY           SKY/WX    TMP DP  RH WIND       PRES   REMARKS
CHARLESTON     LGT RAIN  53  51  93 CALM      29.96F FOG              
$$

WVZ022-031-221800-
North Central West Virginia
  
CITY           SKY/WX    TMP DP  RH WIND       PRES   REMARKS
CLARKSBURG     PTSUNNY   60  48  64 SW8       29.95F                  
MORGANTOWN     MOSUNNY   64  46  52 VRB7      29.95F                  
$$

WVZ025-035-042-045-221800-
Southern West Virginia
  
CITY           SKY/WX    TMP DP  RH WIND       PRES   REMARKS
BECKLEY        LGT RAIN  51  48  89 SE6       29.99F                  
LOGAN          CLOUDY    52  52 100 CALM      29.97F FOG              
BLUEFIELD      CLOUDY    51  48  89 S6        30.00F                  
LEWISBURG      CLOUDY    49  46  87 CALM      30.00F                  
$$

WVZ047-221800-
Northern Mountains of West Virginia
  
CITY           SKY/WX    TMP DP  RH WIND       PRES   REMARKS
ELKINS         CLOUDY    57  43  59 CALM      29.98F                  
$$

WVZ052-221800-
Eastern Panhandle of West Virginia
  
CITY           SKY/WX    TMP DP  RH WIND       PRES   REMARKS
MARTINSBURG    CLOUDY    58  40  51 CALM      29.96F                  
PETERSBURG     CLOUDY    60  45  57 CALM      29.96F                  
$$
  


966 
ASUS41 KRLX 221710
RWRRLX
CRWRWRRLX ALL
West Virginia Regional Weather Roundup
National Weather Service Charleston WV
Issued by National Weather Service Pittsburgh PA
1200 PM EST WED FEB 22 2017

Note: "fair" indicates few or no clouds below 12,000 feet with no
significant weather and/or obstructions to visibility.

WVZ003-221800-
Northern Panhandle of West Virginia
  
CITY           SKY/WX    TMP DP  RH WIND       PRES   REMARKS
WHEELING       CLOUDY    59  47  64 S7        29.93S                  
$$

WVZ009-221800-
Northwest West Virginia
  
CITY           SKY/WX    TMP DP  RH WIND       PRES   REMARKS
PARKERSBURG    CLOUDY    59  52  77 S6        29.97F                  
$$

WVZ006-221800-
Western West Virginia
  
CITY           SKY/WX    TMP DP  RH WIND       PRES   REMARKS
HUNTINGTON     LGT RAIN  55  53  93 S6        29.95F VSB 1            
$$

WVZ015-221800-
West Central West Virginia
  
CITY           SKY/WX    TMP DP  RH WIND       PRES   REMARKS
CHARLESTON     LGT RAIN  53  51  93 CALM      29.96F FOG              
$$

WVZ031-221800-
North Central West Virginia
  
CITY           SKY/WX    TMP DP  RH WIND       PRES   REMARKS
CLARKSBURG     PTSUNNY   60  48  64 SW8       29.95F                  
MORGANTOWN     MOSUNNY   64  46  52 VRB7      29.95F                  
$$

WVZ035-042-221800-
South Central West Virginia
  
CITY           SKY/WX    TMP DP  RH WIND       PRES   REMARKS
BECKLEY        LGT RAIN  51  48  89 SE6       29.99F                  
BLUEFIELD      CLOUDY    51  48  89 S6        30.00F                  
$$

WVZ045-221800-
Greenbrier Valley of West Virginia
  
CITY           SKY/WX    TMP DP  RH WIND       PRES   REMARKS
LEWISBURG      CLOUDY    49  46  87 CALM      30.00F                  
$$

WVZ047-221800-
Northern Mountains of West Virginia
  
CITY           SKY/WX    TMP DP  RH WIND       PRES   REMARKS
ELKINS         CLOUDY    57  43  59 CALM      29.98F                  
$$

WVZ052-221800-
Eastern Panhandle of West Virginia
  
CITY           SKY/WX    TMP DP  RH WIND       PRES   REMARKS
MARTINSBURG    CLOUDY    58  40  51 CALM      29.96F                  
PETERSBURG     CLOUDY    60  45  57 CALM      29.96F                  
$$
  

Return to Home page


Western Regional Climate Center, wrcc@dri.edu